Location: Newark
(50.8964°N, 1.4048°W)
Time: 19:12:02
(UTC+00:00)

N. Korean satellite - Pass Details

Date: 26 January 2020
Orbit: 456 x 506 km, 97.2° (Epoch: 17 February)

Event Time Altitude Azimuth Distance (km) Brightness Sun altitude
Rises 17:29:35 0° 187° (S) 2,463 10.6 -7.1°
Reaches altitude 10° 17:31:44 10° 197° (SSW) 1,595 9.7 -7.4°
Maximum altitude 17:34:52 33° 263° (W) 792 8.5 -7.9°
Drops below altitude 10° 17:38:02 10° 330° (NNW) 1,616 9.4 -8.3°
Sets 17:40:14 0° 340° (NNW) 2,502 10.2 -8.7°
